Flag for Argentina Weather past 2 weeks in Tucumán, Tucumán, Argentina

Now
64 °F

Partly cloudy.


Feels Like: 64 °F
Forecast: 52 / 77 °F
Wind: 5 mph from North

Location: Tucuman Aerodrome

Current Time: Mar 27, 2015 at 11:42:34 PM

Latest Report: Mar 27, 2015 at 11:00 PM


Visibility: N/A

Pressure: 30.18 "Hg

Humidity: 88%

Dew point: 61 °F

Location of TucumánLocation

Historic Weather in Tucumán — Graph

°F

Tucumán temperature yesterday

Maximum temperature yesterday: 64 °F (at 3:00 PM)
Minimum temperature yesterday: 59 °F (at 12:00 AM)
Average temperature yesterday: 61 °F

Past Weeks' High & Low Weather Summary

 TemperatureHumidityPressure
High93 °F (Mar 13, 5:00 PM)100% (Mar 14, 9:00 AM)30.21 "Hg (Mar 14, 9:00 AM)
Low59 °F (Mar 22, 6:00 AM)49% (Mar 18, 4:00 PM)29.68 "Hg (Mar 13, 5:00 PM)
Average72 °F86%30.01 "Hg
* Reported Mar 12 10:00 PM — Mar 27 10:00 PM, Tucumán, Weather by CustomWeather, © 2015

Note: Actual official high and low records may vary slightly from our data, if they occured in-between our weather recording intervals... More about our weather records

Advertising

Tucumán weather history for previous 24 hours

 ConditionsComfort  
Time TempWeatherWind HumidityBarometerVisibility
10:00 PM
Fri, Mar 27
66 °FPassing clouds.5 mph83%30.18 "HgN/A
9:00 PM66 °FPassing clouds.5 mph83%30.18 "HgN/A
8:00 PM68 °FPartly cloudy.No wind78%30.15 "HgN/A
7:00 PM70 °FPartly cloudy.3 mph69%30.15 "HgN/A
6:00 PM70 °FBroken clouds.No wind69%30.15 "HgN/A
5:00 PM72 °FBroken clouds.5 mph61%30.15 "HgN/A
4:00 PM72 °FMore clouds than sun.3 mph61%30.15 "HgN/A
3:00 PM70 °FMore clouds than sun.5 mph64%30.18 "HgN/A
2:00 PM70 °FMore clouds than sun.3 mph64%30.18 "HgN/A
1:00 PM66 °FMore clouds than sun.3 mph73%30.21 "HgN/A
12:00 PM66 °FOvercast.6 mph78%30.21 "HgN/A
11:00 AM64 °FOvercast.No wind83%30.21 "HgN/A
10:00 AM64 °FOvercast.No wind88%30.21 "HgN/A
9:00 AM63 °FPartly sunny.3 mph88%30.21 "HgN/A
8:00 AM61 °FPartly sunny.5 mph94%30.18 "HgN/A
7:00 AM61 °FOvercast.5 mph94%30.18 "HgN/A
6:00 AM61 °FOvercast.5 mph94%30.15 "HgN/A
5:00 AM61 °FOvercast.5 mph94%30.15 "HgN/A
4:00 AM61 °FOvercast.5 mph94%30.18 "HgN/A
3:00 AM61 °FOvercast.5 mph88%30.18 "HgN/A
1:00 AM61 °FOvercast.No wind94%30.21 "HgN/A
11:00 PM
Thu, Mar 26
63 °FPartly cloudy.3 mph88%30.21 "HgN/A
Weather by CustomWeather, © 2015

See weather overviewHow to use our weather pages